This is the latest recevied weather packets stored in our database for station/object VE7KNL-13. If no packets are shown the sender has not sent any weather packets the latest 10 day(s).
| Time | Temp. | Humidity | Pressure | Rain* | Wind** | Luminosity | Snow |
|---|---|---|---|---|---|---|---|
| 1777812657 | 2.22° C | 89% | 1013.1 hPa | 0 mm | - | - | - |
| 1777806617 | 3.89° C | 85% | 1013.4 hPa | 0 mm | - | - | - |
| 1777803016 | 4.44° C | 82% | 1013.5 hPa | 0 mm | - | - | - |
| 1777800016 | 5.56° C | 79% | 1013.2 hPa | 0 mm | - | - | - |
| 1777799416 | 5.56° C | 79% | 1013.3 hPa | 0 mm | - | - | - |
| 1777794036 | 7.22° C | 73% | 1013.6 hPa | 0 mm | - | - | - |
| 1777790418 | 8.89° C | 68% | 1013.3 hPa | 0 mm | - | - | - |
| 1777788618 | 10° C | 66% | 1013.2 hPa | 0 mm | - | - | - |
| 1777788018 | 10° C | 65% | 1013.2 hPa | 0 mm | - | - | - |
| 1777786818 | 11.11° C | 62% | 1013 hPa | 0 mm | - | - | - |
| 1777786218 | 11.11° C | 62% | 1013 hPa | 0 mm | - | - | - |
| 1777785018 | 11.67° C | 60% | 1012.5 hPa | 0 mm | - | - | - |
| 1777783217 | 12.78° C | 57% | 1012 hPa | 0 mm | - | - | - |
| 1777782017 | 13.89° C | 56% | 1011.5 hPa | 0 mm | - | - | - |
| 1777779617 | 15° C | 53% | 1011 hPa | 0 mm | - | - | - |
| 1777777817 | 16.67° C | 48% | 1010.4 hPa | 0 mm | - | - | - |
| 1777770017 | 24.44° C | 25% | 1009.8 hPa | 0 mm | - | - | - |
| 1777768817 | 24.44° C | 26% | 1010.1 hPa | 0 mm | - | - | - |
| 1777759816 | 25° C | 26% | 1011.8 hPa | 0 mm | - | - | - |
| 1777752618 | 23.89° C | 29% | 1012.9 hPa | 0 mm | - | - | - |
| 1777752018 | 24.44° C | 28% | 1013 hPa | 0 mm | - | - | - |
| 1777746618 | 22.78° C | 35% | 1013.8 hPa | 0 mm | - | - | - |
| 1777744838 | 22.22° C | 35% | 1014.3 hPa | 0 mm | - | - | - |
| 1777741217 | 19.44° C | 41% | 1014.8 hPa | 0 mm | - | - | - |
| 1777737017 | 15° C | 52% | 1015.3 hPa | 0 mm | - | - | - |
* Rain latest hour (hover to see other rain measurements)
** Current wind speed in m/s (hover to see current wind gust speed)